CW9769 Weather Reports


Display with metric or nautical units.
time (UTC)temp
F
wind
direction
speed
MPH
gust
MPH
rain 1hr
in
rain 24hr
in
rain mn
in
humidity
%
barometer
mb
20260901085538 76 266 4.0 9.0 0.00 0.00 0.00 85 1015.9
20260901084537 76 268 4.0 9.0 0.00 0.00 0.00 84 1016.0
20260901083536 76 276 4.0 9.0 0.00 0.00 0.00 83 1015.9
20260901082535 76 277 5.0 7.0 0.00 0.00 0.00 83 1015.9
20260901081535 76 275 4.0 7.0 0.00 0.00 0.00 83 1015.9
20260901080534 76 288 5.0 8.0 0.00 0.00 0.00 83 1015.9
20260901075533 76 278 4.0 8.0 0.00 0.00 0.00 83 1015.9
20260901074532 76 276 5.0 9.0 0.00 0.00 0.00 83 1015.9
20260901073531 75 284 4.0 9.0 0.00 0.00 0.00 84 1015.8
20260901072530 75 274 4.0 9.0 0.00 0.00 0.00 84 1015.8
20260901071530 75 269 5.0 8.0 0.00 0.00 0.00 84 1015.8
20260901070529 75 274 5.0 8.0 0.00 0.00 0.00 85 1015.9
20260901065528 75 260 4.0 8.0 0.00 0.00 0.00 85 1015.9
20260901064528 74 257 4.0 8.0 0.00 0.00 0.00 86 1015.9
20260901063527 74 259 2.0 7.0 0.00 0.00 0.00 86 1015.9
20260901062526 74 264 3.0 4.0 0.00 0.00 0.00 86 1016.2
20260901061525 74 264 2.0 5.0 0.00 0.00 0.00 85 1015.9
20260901060525 74 259 2.0 5.0 0.00 0.00 0.00 85 1016.2
20260901055524 74 240 1.0 6.0 0.00 0.00 0.00 85 1016.2
20260901054523 74 265 1.0 6.0 0.00 0.00 0.00 85 1016.2
20260901053522 74 269 1.0 4.0 0.00 0.00 0.00 86 1016.2
20260901052522 74 250 1.0 3.0 0.00 0.00 0.00 86 1016.2
20260901051521 74 259 1.0 5.0 0.00 0.00 0.00 87 1016.5
20260901050449 73 209 1.0 5.0 0.00 0.00 0.00 87 1016.2
20260901045417 73 213 2.0 4.0 0.00 0.00 0.00 88 1016.5
20260901044416 73 197 1.0 5.0 0.00 0.00 0.00 88 1016.5
20260901043415 74 194 2.0 4.0 0.00 0.00 0.00 87 1016.2
20260901042415 74 193 2.0 4.0 0.00 0.00 0.00 86 1016.2
20260901041414 74 206 1.0 5.0 0.00 0.00 0.00 86 1016.5
20260901040412 74 229 2.0 6.0 0.00 0.00 0.00 87 1016.2
20260901035410 73 224 3.0 6.0 0.00 0.00 0.00 88 1016.2
20260901034410 73 204 2.0 6.0 0.00 0.00 0.00 89 1016.1
20260901033409 72 227 2.0 4.0 0.00 0.00 0.00 91 1016.4
20260901032408 72 254 1.0 2.0 0.00 0.00 0.00 92 1016.4
20260901031407 72 200 2.0 2.0 0.00 0.00 0.00 91 1016.4
20260901030405 72 200 0.0 2.0 0.00 0.00 0.00 91 1016.4
20260901025405 72 200 1.0 2.0 0.00 0.00 0.00 90 1016.0
20260901024404 72 193 1.0 4.0 0.00 0.00 0.00 90 1016.0
20260901023332 72 183 1.0 4.0 0.00 0.00 0.00 90 1016.0
20260901022300 72 199 2.0 4.0 0.00 0.00 0.00 91 1016.0
20260901021300 72 187 1.0 2.0 0.00 0.00 0.00 90 1016.0
20260901020259 73 177 1.0 1.0 0.00 0.00 0.00 89 1016.0
20260901015258 74 125 1.0 2.0 0.00 0.00 0.00 89 1016.3
20260901014257 74 113 0.0 2.0 0.00 0.00 0.00 88 1016.3
20260901013225 75 113 0.0 2.0 0.00 0.00 0.00 87 1016.3
20260901012223 75 113 1.0 2.0 0.00 0.00 0.00 86 1016.3
20260901011221 76 171 0.0 7.0 0.00 0.00 0.00 85 1015.7
20260901010221 76 198 2.0 7.0 0.00 0.00 0.00 84 1015.3
20260901005220 76 217 4.0 8.0 0.00 0.00 0.00 83 1015.3
20260901004148 76 232 3.0 8.0 0.00 0.00 0.00 84 1015.6
20260901003147 76 225 4.0 8.0 0.00 0.00 0.00 84 1015.6
20260901002145 76 205 3.0 7.0 0.00 0.00 0.00 84 1016.0
20260901001042 76 265 2.0 4.0 0.00 0.00 0.00 84 1017.0
20260831235938 76 273 2.0 3.0 0.00 0.00 0.00 83 1017.0
20260831234937 77 302 2.0 8.0 0.00 0.00 0.00 80 1017.0
20260831233937 78 299 4.0 9.0 0.00 0.00 0.00 80 1017.3
20260831232905 79 304 5.0 10.0 0.00 0.00 0.00 79 1017.4
20260831231905 80 317 4.0 7.0 0.00 0.00 0.00 77 1017.4
20260831230904 80 306 3.0 6.0 0.00 0.00 0.00 76 1017.4
20260831225903 81 300 3.0 8.0 0.00 0.00 0.00 74 1017.4
20260831224831 82 300 4.0 10.0 0.00 0.00 0.00 73 1017.4
20260831223759 82 298 4.0 10.0 0.00 0.00 0.00 73 1017.4
20260831222727 83 300 5.0 7.0 0.00 0.00 0.00 74 1017.5
20260831221726 83 304 3.0 5.0 0.00 0.00 0.00 74 1017.5
20260831220654 84 298 3.0 6.0 0.00 0.00 0.00 72 1017.5
20260831215653 85 280 3.0 6.0 0.00 0.00 0.00 70 1017.2
20260831214652 85 273 2.0 4.0 0.00 0.00 0.00 70 1017.2
20260831213549 85 273 2.0 3.0 0.00 0.00 0.00 72 1016.9
20260831212548 85 268 2.0 3.0 0.00 0.00 0.00 72 1017.2
20260831211547 85 273 2.0 3.0 0.00 0.00 0.00 70 1017.2
20260831210546 85 303 2.0 5.0 0.00 0.00 0.00 69 1017.5
20260831205545 86 282 2.0 6.0 0.00 0.00 0.00 67 1017.5
20260831204545 86 303 3.0 6.0 0.00 0.00 0.00 66 1017.6
20260831203544 85 297 2.0 4.0 0.00 0.00 0.00 72 1017.2
20260831202542 84 326 1.0 5.0 0.00 0.00 0.00 71 1017.5
20260831201541 85 294 3.0 6.0 0.00 0.00 0.00 68 1017.5
20260831200509 83 296 3.0 4.0 0.00 0.00 0.00 70 1017.5
20260831195508 82 280 2.0 3.0 0.00 0.00 0.00 74 1017.1
20260831194405 82 276 2.0 3.0 0.00 0.00 0.00 74 1017.1
20260831193404 82 267 1.0 5.0 0.00 0.01 0.00 72 1017.1
20260831192403 82 265 3.0 9.0 0.00 0.01 0.00 71 1017.1
20260831191402 83 294 6.0 10.0 0.00 0.01 0.00 67 1017.4
20260831190401 84 302 5.0 11.0 0.00 0.01 0.00 66 1017.8
20260831185401 85 302 6.0 13.0 0.00 0.01 0.00 64 1017.8
20260831184400 86 301 4.0 13.0 0.00 0.01 0.00 63 1017.9
20260831183359 85 293 7.0 12.0 0.00 0.01 0.00 63 1018.2
20260831182359 85 286 6.0 16.0 0.00 0.02 0.00 65 1018.1
20260831181358 85 306 6.0 16.0 0.00 0.02 0.00 64 1018.5
20260831180357 86 317 10.0 16.0 0.00 0.02 0.00 62 1018.5
20260831175356 86 313 7.0 16.0 0.00 0.02 0.00 62 1018.5
20260831174355 85 301 8.0 15.0 0.00 0.02 0.00 62 1018.5
20260831173354 85 311 7.0 14.0 0.00 0.02 0.00 63 1018.8
20260831172354 84 301 7.0 11.0 0.00 0.02 0.00 67 1018.8
20260831171322 84 301 7.0 11.0 0.00 0.02 0.00 67 1018.8
20260831170321 85 304 6.0 12.0 0.00 0.02 0.00 66 1018.8
20260831165321 84 321 5.0 13.0 0.00 0.02 0.00 67 1018.8
20260831164319 84 304 6.0 13.0 0.00 0.02 0.00 69 1018.8
20260831163248 84 293 7.0 13.0 0.00 0.02 0.00 69 1018.8
20260831162247 84 312 4.0 9.0 0.00 0.02 0.00 71 1018.8
20260831161246 83 293 5.0 15.0 0.00 0.02 0.00 71 1018.8
20260831160245 83 282 6.0 15.0 0.00 0.02 0.00 70 1018.8
20260831155244 84 279 7.0 11.0 0.00 0.02 0.00 70 1018.8
20260831154243 83 290 7.0 11.0 0.00 0.02 0.00 73 1018.8
20260831153243 82 278 7.0 10.0 0.00 0.02 0.00 72 1018.8
20260831152242 83 278 3.0 9.0 0.00 0.02 0.00 74 1018.8
20260831151241 81 276 4.0 8.0 0.00 0.02 0.00 74 1018.7
20260831150240 80 277 4.0 8.0 0.00 0.02 0.00 75 1018.7
20260831145240 80 267 4.0 9.0 0.00 0.02 0.00 75 1018.6
20260831144239 80 269 4.0 9.0 0.00 0.02 0.00 76 1018.6
20260831143238 79 262 3.0 6.0 0.00 0.02 0.00 78 1018.6
20260831142237 78 239 2.0 6.0 0.00 0.02 0.00 80 1018.6
20260831141236 78 260 2.0 6.0 0.00 0.02 0.00 81 1018.6
20260831140235 77 256 2.0 7.0 0.00 0.02 0.00 81 1018.6
20260831135204 77 268 3.0 6.0 0.00 0.02 0.00 83 1018.6
20260831134203 76 251 2.0 6.0 0.00 0.02 0.00 83 1018.5
20260831133202 76 266 2.0 6.0 0.00 0.02 0.00 84 1018.5
20260831132201 75 233 2.0 4.0 0.00 0.02 0.00 85 1018.5
20260831131201 74 242 1.0 4.0 0.00 0.02 0.00 87 1018.5
20260831130200 74 242 2.0 5.0 0.00 0.02 0.00 87 1018.5
20260831125128 73 239 2.0 5.0 0.00 0.02 0.00 86 1018.5
20260831124127 73 245 2.0 6.0 0.00 0.02 0.00 86 1018.5
20260831123127 73 225 3.0 6.0 0.00 0.02 0.00 85 1018.5
20260831122126 73 234 1.0 5.0 0.00 0.02 0.00 85 1018.5
20260831121125 73 230 2.0 5.0 0.00 0.02 0.00 85 1018.5
20260831120124 72 252 1.0 5.0 0.00 0.02 0.00 86 1018.5
20260831115123 72 257 3.0 5.0 0.00 0.02 0.00 87 1018.5
20260831114122 72 277 3.0 4.0 0.00 0.02 0.00 87 1018.1
20260831113050 72 230 1.0 6.0 0.00 0.02 0.00 87 1018.1
20260831112050 72 244 1.0 7.0 0.00 0.02 0.00 87 1018.2
20260831111018 71 244 3.0 8.0 0.00 0.02 0.00 88 1018.2
20260831110017 71 246 3.0 8.0 0.00 0.02 0.00 89 1018.2
20260831104945 70 235 3.0 7.0 0.00 0.02 0.00 90 1018.1
20260831103945 71 261 2.0 3.0 0.00 0.02 0.00 89 1018.2
20260831102943 71 277 2.0 3.0 0.00 0.02 0.00 88 1017.8
20260831101942 71 251 1.0 3.0 0.00 0.02 0.00 88 1017.8
20260831100941 71 225 1.0 3.0 0.00 0.02 0.00 88 1017.5
20260831095941 71 209 2.0 4.0 0.00 0.02 0.00 88 1017.5
20260831094940 71 203 2.0 4.0 0.00 0.02 0.00 88 1017.5
20260831093939 71 226 1.0 3.0 0.00 0.02 0.00 88 1017.5
20260831092938 71 240 1.0 2.0 0.00 0.02 0.00 88 1017.5
20260831091938 71 214 0.0 3.0 0.00 0.02 0.00 87 1017.9
20260831090937 71 218 1.0 4.0 0.00 0.02 0.00 87 1017.5
20260831085936 71 208 1.0 3.0 0.00 0.02 0.00 87 1017.8